User: anonymous   Login
Location: Mentone
(34.5413°N, 85.5351°W)
Time: 02:35:51
(UTC-06:00)
Language:

NOSS 2-2 (E) - Orbit

View from above orbital plane
View from above orbital plane
View from above satellite
View from above satellite

Ground track
Ground track

The orbit data is extracted from the following two-line orbital elements,

1 21809U 91076E   16340.73225054 0.00000160  00000-0  57496-4 0    00
2 21809  63.3540 238.1345 0726000  20.3687 339.6313 13.41309660    01
Epoch (UTC): 05 December 2016 17:34:26
Eccentricity: 0.0726000
inclination: 63.3540°
perigee height: 561 km
apogee height: 1647 km
right ascension of ascending node: 238.1345°
argument of perigee: 20.3687°
revolutions per day: 13.41309660
mean anomaly at epoch: 339.6313°
orbit number at epoch: 0

The dashed part of the orbit path shows where the satellite is in the earth's shadow,  

DLR